Grand Island, NE

9:44 PM CDT on August 16, 2017 (GMT -0500)
Central Nebraska Regional

Weather History for KGRI - September, 2012

Change the Weather History Date:

Thursday, September 13, 2012

  Actual Average Record
Temperature  
Mean Temperature 61 °F 66 °F  
Max Temperature 71 °F 79 °F 99 °F (1939)
Min Temperature 50 °F 54 °F 34 °F (1974)
Degree Days  
Heating Degree Days 4 3  
Month to date heating degree days 10 21  
Since 1 July heating degree days 14 31  
Cooling Degree Days 0 4  
Month to date cooling degree days 105 69  
Year to date cooling degree days 1489 983  
Growing Degree Days 10 (Base 50)    
Moisture  
Dew Point 46 °F    
Average Humidity 66    
Maximum Humidity 100    
Minimum Humidity 31    
Precipitation  
Precipitation 0.00 in 0.07 in 1.81 in (1938)
Month to date precipitation 0.47 1.00  
Year to date precipitation 8.58 21.77  
Snow  
Snow 0.00 in 0.00 in - ()
Month to date snowfall 0.0 0.0  
Since 1 July snowfall 0.0 0.0  
Since 1 September snowfall 0.0 0.0  
Snow Depth 0.00 in    
Sea Level Pressure  
Sea Level Pressure 30.40 in    
Wind  
Wind Speed 5 mph (WNW)    
Max Wind Speed 10 mph    
Max Gust Speed 13 mph    
Visibility 9 miles    
Events      
T = Trace of Precipitation, MM = Missing Value Source: NWS Daily Summary

Daily Weather History Graph

Daily Weather History Graph

Search for Another Location

Airport or City:

Trip Planner

Search our weather history database for the weather conditions in past years. The results will help you decide how hot, cold, wet, or windy it might be!

Date:

Astronomy

Sep. 13, 2012 Rise Set
Actual Time 7:12 AM CDT 7:44 PM CDT
Civil Twilight 6:44 AM CDT 8:12 PM CDT
Nautical Twilight 6:12 AM CDT 8:44 PM CDT
Astronomical Twilight 5:38 AM CDT 9:18 PM CDT
Moon 4:32 AM CDT (9/13) 6:09 PM CDT (9/13)
Length of Visible Light 13h 27m
Length of Day
12h 32m
Waning Crescent, 7% of the Moon is Illuminated
Sep 13
Waning Crescent
Sep 15
New
Sep 22
First Quarter
Sep 29
Full
Oct 8
Last Quarter

Hourly Weather History & Observations

Time (CDT) Temp. Dew Point Humidity Pressure Visibility Wind Dir Wind Speed Gust Speed Precip Events Conditions
12:53 AM 53.1 °F 52.0 °F 96% 30.33 in 10.0 mi North 9.2 mph - 0.00 in   Scattered Clouds
1:53 AM 53.1 °F 52.0 °F 96% 30.34 in 10.0 mi North 5.8 mph - N/A   Clear
3:53 AM 51.1 °F 51.1 °F 100% 30.36 in 7.0 mi NW 5.8 mph - N/A   Clear
4:53 AM 51.1 °F 50.0 °F 96% 30.37 in 7.0 mi NW 5.8 mph - N/A   Clear
5:53 AM 51.1 °F 50.0 °F 96% 30.38 in 8.0 mi NNW 5.8 mph - N/A   Clear
6:53 AM 50.0 °F 48.9 °F 96% 30.41 in 8.0 mi NW 5.8 mph - N/A   Clear
7:53 AM 50.0 °F 48.9 °F 96% 30.43 in 8.0 mi NNW 4.6 mph - N/A   Clear
8:53 AM 52.0 °F 50.0 °F 93% 30.44 in 10.0 mi NNW 5.8 mph - N/A   Clear
9:53 AM 55.9 °F 51.1 °F 84% 30.45 in 10.0 mi NNW 4.6 mph - N/A   Clear
10:53 AM 59.0 °F 46.0 °F 62% 30.46 in 10.0 mi Calm Calm - N/A   Clear
11:53 AM 63.0 °F 46.0 °F 54% 30.45 in 10.0 mi Calm Calm - N/A   Clear
12:53 PM 64.9 °F 44.1 °F 47% 30.44 in 10.0 mi Calm Calm - N/A   Clear
1:53 PM 68.0 °F 42.8 °F 40% 30.42 in 10.0 mi Variable 4.6 mph - N/A   Clear
2:53 PM 70.0 °F 42.1 °F 36% 30.40 in 10.0 mi Variable 3.5 mph - N/A   Clear
3:53 PM 69.1 °F 41.0 °F 36% 30.39 in 10.0 mi SSE 3.5 mph - N/A   Clear
4:53 PM 70.0 °F 39.0 °F 32% 30.38 in 10.0 mi NNE 3.5 mph - N/A   Clear
5:53 PM 71.1 °F 39.9 °F 32% 30.38 in 10.0 mi SSW 4.6 mph - N/A   Clear
6:53 PM 68.0 °F 43.0 °F 40% 30.37 in 10.0 mi South 5.8 mph - N/A   Clear
7:53 PM 63.0 °F 45.0 °F 52% 30.38 in 10.0 mi South 6.9 mph - N/A   Clear
8:53 PM 57.9 °F 46.0 °F 65% 30.40 in 10.0 mi South 8.1 mph - N/A   Clear
9:53 PM 57.0 °F 45.0 °F 64% 30.39 in 10.0 mi South 9.2 mph - N/A   Clear
10:53 PM 55.9 °F 45.0 °F 67% 30.39 in 10.0 mi South 8.1 mph - N/A   Clear
11:53 PM 55.9 °F 45.0 °F 67% 30.39 in 10.0 mi South 9.2 mph - N/A   Clear